Regional Weather Roundup
Issued by NWS Cleveland, OH

Home | Current Version | Previous Version | Text Only | Print | Product List | Glossary Off
Versions: 1 2 3 4 5 6 7 8 9 10 11 12 13 14 15 16 17 18 19 20 21 22 23 24 25 26 27 28 29 30 31 32 33 34 35 36 37 38 39 40 41 42 43 44 45 46 47 48 49 50

599
ASUS41 KCLE 261210
RWRCLE
OHIO REGIONAL WEATHER ROUNDUP
NATIONAL WEATHER SERVICE CLEVELAND, OH
800 AM EDT THU APR 26 2018

NOTE: "FAIR" INDICATES FEW OR NO CLOUDS BELOW 12,000 FEET WITH NO
SIGNIFICANT WEATHER AND/OR OBSTRUCTIONS TO VISIBILITY.

OHZ001>008-015>018-024>027-034-035-043-044-261300-
   NORTHWEST OHIO

CITY           SKY/WX    TMP DP  RH WIND       PRES   REMARKS
DEFIANCE       FAIR      42  39  89 E3        29.95R
FINDLAY        FAIR      41  38  89 SE5       29.94R
TOLEDO EXPRESS FAIR      39  39 100 CALM      29.95R FOG
TOLEDO EXEC    FAIR      41  39  93 CALM      29.96S FOG
LIMA           FAIR      41  39  93 E8        29.93R
$$

OHZ009>014-019>023-028>033-038-089-261300-
   NORTHEAST OHIO

CITY           SKY/WX    TMP DP  RH WIND       PRES   REMARKS
CLE-HOPKINS    FAIR      37  35  92 SW3       29.97R
CLE-LAKEFRONT  FAIR      40  35  83 SW3       29.95R
CUY CO. ARPT   SUNNY     39  37  93 SW6       29.95R
LORAIN-ELYRIA  FAIR      35  32  88 NW6       29.95S
ASHTABULA      FAIR      37  36  96 W7        29.94R
AKRON-CANTON   FAIR      38  34  85 SW3       29.94R
WOOSTER        FAIR      36  35  96 E3        29.95R FOG
MANSFIELD      FAIR      37  37 100 E3        29.93S FOG
YOUNGSTOWN     FAIR      38  34  85 W7        29.93R
$$

OHZ042-051>053-060>062-070>072-077>081-261300-
  SOUTHWEST OHIO

CITY           SKY/WX    TMP DP  RH WIND       PRES   REMARKS
CINC-COVINGTON FAIR      43  34  70 N7        29.89S
CINC-LUNKEN    FAIR      45  39  79 NE3       29.91S
HAMILTON       FAIR      40  37  89 CALM      29.92R
DAYTON         FAIR      41  40  96 NE5       29.92R
WRIGHT-PAT AFB PTSUNNY   43  39  87 NE6       29.91R
DAYTON GENERAL FAIR      41  35  79 CALM      29.90R
WILMINGTON     FAIR      43  42  97 NE8       29.90R FOG
$$

OHZ036-037-039>041-045>050-054>059-063>069-073>076-082>088-261300-
  CENTRAL AND SOUTHEAST OHIO

CITY           SKY/WX    TMP DP  RH WIND       PRES   REMARKS
COLUMBUS       CLOUDY    44  38  79 E8        29.93R
OSU AIRPORT    PTSUNNY   44  38  79 E8        29.93R
BOLTON FIELD   SUNNY     43  39  87 E6        29.93R
RICKENBACK AFB FAIR      42  42 100 E8        29.93R
NEWARK         CLOUDY    43  39  86 NE6       29.93S
MARION         FAIR      37  36  96 E5        29.94R FOG
LANCASTER      PTSUNNY   44  41  89 E7        29.93R
ZANESVILLE     PTSUNNY   43  39  86 NE6       29.94R FOG
NEW PHILLY     NOT AVBL
$$




USA.gov is the U.S. government's official web portal to all federal, state and local government web resources and services.